Location: ???????
(55.4362°N, 38.1183°E)
Time: 17:09:02
(UTC+00:00)

Cosmos 1184 Rocket - Pass Details

Date: 17 June 2021
Orbit: 399 x 413 km, 81.2° (Epoch: 30 July)

Event Time Altitude Azimuth Distance (km) Brightness Sun altitude
Exits shadow 21:47:47 - 230° (SW) 1,535 5.2 -11.1°
Reaches altitude 10° 21:47:53 10° 231° (SW) 1,499 5.1 -11.1°
Maximum altitude 21:50:46 29° 293° (WNW) 812 4.4 -11.0°
Drops below altitude 10° 21:53:41 10° 355° (N) 1,508 7.1 -11.0°
Sets 21:55:54 0° 8° (N) 2,374 8.9 -10.9°
